Wetterdaten: Woche 06.09.10 - 12.09.10 (KW36)
Datum Zeit Temperatur Luftfeuchte Luftdruck Niederschlag Windrichtung Sonnenschein Solar Wind
06.09.2010 00:00 9,9 C 90 % 1017,3 hPa 0,0 l/m N 0,00 h 0 W/m 2,3 km/h (1 Bft)
06.09.2010 01:00 9,3 C 90 % 1017,4 hPa 0,0 l/m N-NO 0,00 h 0 W/m 2,9 km/h (1 Bft)
06.09.2010 02:00 8,8 C 91 % 1017,1 hPa 0,0 l/m N-NO 0,00 h 0 W/m 2,4 km/h (1 Bft)
06.09.2010 03:00 8,4 C 91 % 1016,8 hPa 0,0 l/m N-NW 0,00 h 0 W/m 4,5 km/h (1 Bft)
06.09.2010 04:00 7,9 C 92 % 1016,9 hPa 0,0 l/m N 0,00 h 0 W/m 3,9 km/h (1 Bft)
06.09.2010 05:00 7,4 C 92 % 1016,6 hPa 0,0 l/m N-NW 0,00 h 0 W/m 5,5 km/h (1 Bft)
06.09.2010 06:00 7,2 C 94 % 1016,6 hPa 0,0 l/m NO 0,00 h 7 W/m 6,7 km/h (2 Bft)
06.09.2010 07:00 7,2 C 95 % 1016,9 hPa 0,0 l/m N-NO 0,58 h 75 W/m 5,9 km/h (2 Bft)
06.09.2010 08:00 8,0 C 93 % 1016,8 hPa 0,0 l/m NO 0,67 h 199 W/m 9,9 km/h (2 Bft)
06.09.2010 09:00 10,2 C 85 % 1016,6 hPa 0,0 l/m NO 1,00 h 406 W/m 12,8 km/h (3 Bft)
06.09.2010 10:00 12,7 C 73 % 1016,3 hPa 0,0 l/m NO 1,00 h 557 W/m 16,0 km/h (3 Bft)
06.09.2010 11:00 14,8 C 60 % 1015,8 hPa 0,0 l/m O 1,00 h 670 W/m 20,1 km/h (4 Bft)
06.09.2010 12:00 16,2 C 54 % 1014,9 hPa 0,0 l/m O 1,00 h 730 W/m 22,9 km/h (4 Bft)
06.09.2010 13:00 17,4 C 50 % 1014,2 hPa 0,0 l/m O-NO 1,00 h 739 W/m 21,8 km/h (4 Bft)
06.09.2010 14:00 18,2 C 45 % 1013,3 hPa 0,0 l/m O-SO 1,00 h 703 W/m 21,7 km/h (4 Bft)
06.09.2010 15:00 18,4 C 42 % 1012,6 hPa 0,0 l/m O 1,00 h 591 W/m 22,6 km/h (4 Bft)
06.09.2010 16:00 18,3 C 44 % 1012,0 hPa 0,0 l/m O-SO 0,92 h 399 W/m 21,0 km/h (4 Bft)
06.09.2010 17:00 17,5 C 46 % 1011,4 hPa 0,0 l/m O 0,42 h 205 W/m 18,1 km/h (3 Bft)
06.09.2010 18:00 16,6 C 50 % 1011,2 hPa 0,0 l/m O 0,08 h 97 W/m 14,1 km/h (3 Bft)
06.09.2010 19:00 15,3 C 56 % 1011,3 hPa 0,0 l/m O-NO 0,00 h 19 W/m 8,7 km/h (2 Bft)
06.09.2010 20:00 14,1 C 63 % 1011,2 hPa 0,0 l/m O-NO 0,00 h 0 W/m 10,7 km/h (2 Bft)
06.09.2010 21:00 13,4 C 65 % 1011,2 hPa 0,0 l/m O-NO 0,00 h 0 W/m 7,0 km/h (2 Bft)
06.09.2010 22:00 12,8 C 67 % 1011,0 hPa 0,0 l/m NO 0,00 h 0 W/m 4,5 km/h (1 Bft)
06.09.2010 23:00 12,4 C 68 % 1010,9 hPa 0,0 l/m NO 0,00 h 0 W/m 4,8 km/h (1 Bft)
07.09.2010 00:00 11,9 C 72 % 1010,5 hPa 0,0 l/m O-NO 0,00 h 0 W/m 3,6 km/h (1 Bft)
07.09.2010 01:00 11,1 C 83 % 1010,0 hPa 0,2 l/m N 0,00 h 0 W/m 2,7 km/h (1 Bft)
07.09.2010 02:00 10,3 C 89 % 1009,0 hPa 0,0 l/m O-NO 0,00 h 0 W/m 3,3 km/h (1 Bft)
07.09.2010 03:00 10,2 C 90 % 1008,3 hPa 0,0 l/m O-NO 0,00 h 0 W/m 3,1 km/h (1 Bft)
07.09.2010 04:00 10,0 C 92 % 1007,9 hPa 0,0 l/m N-NO 0,00 h 0 W/m 6,8 km/h (2 Bft)
07.09.2010 05:00 9,6 C 93 % 1007,7 hPa 0,0 l/m N-NO 0,00 h 0 W/m 8,0 km/h (2 Bft)
07.09.2010 06:00 9,4 C 95 % 1007,1 hPa 0,8 l/m NO 0,00 h 0 W/m 8,0 km/h (2 Bft)
07.09.2010 07:00 9,4 C 96 % 1006,2 hPa 0,0 l/m N-NO 0,00 h 15 W/m 4,9 km/h (1 Bft)
07.09.2010 08:00 9,9 C 96 % 1006,0 hPa 0,0 l/m N-NW 0,00 h 45 W/m 7,1 km/h (2 Bft)
07.09.2010 09:00 10,2 C 96 % 1006,4 hPa 0,2 l/m N 0,00 h 89 W/m 9,4 km/h (2 Bft)
07.09.2010 10:00 10,8 C 96 % 1006,6 hPa 0,2 l/m N 0,00 h 200 W/m 8,6 km/h (2 Bft)
07.09.2010 11:00 11,9 C 93 % 1006,4 hPa 0,0 l/m S-SW 0,00 h 274 W/m 3,6 km/h (1 Bft)
07.09.2010 12:00 13,7 C 90 % 1006,3 hPa 0,0 l/m S-SO 0,00 h 287 W/m 5,6 km/h (1 Bft)
07.09.2010 13:00 14,7 C 91 % 1005,8 hPa 0,0 l/m S-SO 0,00 h 212 W/m 7,1 km/h (2 Bft)
07.09.2010 14:00 15,9 C 91 % 1005,4 hPa 0,0 l/m S-SW 0,25 h 360 W/m 6,4 km/h (2 Bft)
07.09.2010 15:00 17,3 C 86 % 1004,8 hPa 0,0 l/m O 0,42 h 360 W/m 3,9 km/h (1 Bft)
07.09.2010 16:00 17,6 C 85 % 1004,6 hPa 0,0 l/m NO 0,00 h 178 W/m 9,3 km/h (2 Bft)
07.09.2010 17:00 16,4 C 90 % 1004,8 hPa 0,0 l/m N-NO 0,00 h 85 W/m 9,0 km/h (2 Bft)
07.09.2010 18:00 15,1 C 95 % 1004,4 hPa 0,2 l/m N-NO 0,00 h 20 W/m 9,9 km/h (2 Bft)
07.09.2010 19:00 14,6 C 96 % 1004,3 hPa 0,0 l/m N-NO 0,00 h 6 W/m 9,1 km/h (2 Bft)
07.09.2010 20:00 14,6 C 97 % 1004,1 hPa 0,0 l/m NO 0,00 h 0 W/m 9,3 km/h (2 Bft)
07.09.2010 21:00 14,7 C 97 % 1003,8 hPa 0,0 l/m NO 0,00 h 0 W/m 7,2 km/h (2 Bft)
07.09.2010 22:00 14,6 C 96 % 1003,4 hPa 0,0 l/m N-NO 0,00 h 0 W/m 7,6 km/h (2 Bft)
07.09.2010 23:00 14,1 C 97 % 1003,2 hPa 0,0 l/m NO 0,00 h 0 W/m 7,5 km/h (2 Bft)
08.09.2010 00:00 13,9 C 96 % 1003,1 hPa 0,0 l/m NO 0,00 h 0 W/m 6,7 km/h (2 Bft)
08.09.2010 01:00 13,8 C 96 % 1002,7 hPa 0,0 l/m O-NO 0,00 h 0 W/m 7,8 km/h (2 Bft)
08.09.2010 02:00 13,6 C 96 % 1002,2 hPa 0,0 l/m O-NO 0,00 h 0 W/m 6,7 km/h (2 Bft)
08.09.2010 03:00 13,3 C 96 % 1001,6 hPa 0,0 l/m NO 0,00 h 0 W/m 8,7 km/h (2 Bft)
08.09.2010 04:00 12,9 C 97 % 1001,4 hPa 0,0 l/m NO 0,00 h 0 W/m 8,6 km/h (2 Bft)
08.09.2010 05:00 12,4 C 97 % 1001,6 hPa 0,0 l/m NO 0,00 h 0 W/m 8,0 km/h (2 Bft)
08.09.2010 06:00 12,0 C 97 % 1001,3 hPa 0,0 l/m N-NO 0,00 h 0 W/m 8,0 km/h (2 Bft)
08.09.2010 07:00 11,9 C 98 % 1001,5 hPa 0,0 l/m NO 0,00 h 11 W/m 2,9 km/h (1 Bft)
08.09.2010 08:00 11,9 C 98 % 1002,2 hPa 0,0 l/m W-NW 0,00 h 40 W/m 2,3 km/h (1 Bft)
08.09.2010 09:00 12,3 C 98 % 1002,7 hPa 0,0 l/m SW 0,00 h 60 W/m 1,9 km/h (1 Bft)
08.09.2010 10:00 13,0 C 97 % 1003,2 hPa 0,0 l/m SW 0,00 h 83 W/m 5,4 km/h (1 Bft)
08.09.2010 11:00 13,7 C 96 % 1003,7 hPa 0,2 l/m SW 0,00 h 179 W/m 6,0 km/h (2 Bft)
08.09.2010 12:00 15,1 C 93 % 1004,0 hPa 0,0 l/m SW 0,00 h 164 W/m 5,5 km/h (1 Bft)
08.09.2010 13:00 15,8 C 91 % 1004,5 hPa 0,0 l/m S-SW 0,00 h 195 W/m 9,3 km/h (2 Bft)
08.09.2010 14:00 16,0 C 91 % 1004,8 hPa 0,0 l/m S-SW 0,00 h 145 W/m 9,0 km/h (2 Bft)
08.09.2010 15:00 15,9 C 88 % 1005,1 hPa 0,8 l/m W-SW 0,00 h 73 W/m 9,1 km/h (2 Bft)
08.09.2010 16:00 14,6 C 95 % 1005,5 hPa 4,8 l/m S-SW 0,00 h 26 W/m 7,8 km/h (2 Bft)
08.09.2010 17:00 14,1 C 97 % 1006,1 hPa 0,4 l/m S-SW 0,00 h 79 W/m 8,2 km/h (2 Bft)
08.09.2010 18:00 13,8 C 96 % 1006,8 hPa 0,0 l/m SW 0,00 h 27 W/m 12,6 km/h (3 Bft)
08.09.2010 19:00 13,4 C 96 % 1007,8 hPa 1,4 l/m W-SW 0,00 h 9 W/m 17,0 km/h (3 Bft)
08.09.2010 20:00 12,9 C 97 % 1009,0 hPa 0,2 l/m SW 0,00 h 0 W/m 13,2 km/h (3 Bft)
08.09.2010 21:00 12,9 C 98 % 1009,8 hPa 0,0 l/m W-SW 0,00 h 0 W/m 12,4 km/h (3 Bft)
08.09.2010 22:00 12,4 C 98 % 1009,8 hPa 0,0 l/m SW 0,00 h 0 W/m 12,8 km/h (3 Bft)
08.09.2010 23:00 11,3 C 93 % 1010,3 hPa 0,0 l/m W-SW 0,00 h 0 W/m 15,2 km/h (3 Bft)
09.09.2010 00:00 10,7 C 93 % 1010,7 hPa 0,0 l/m SW 0,00 h 0 W/m 11,4 km/h (2 Bft)
09.09.2010 01:00 10,8 C 92 % 1010,9 hPa 0,0 l/m SW 0,00 h 0 W/m 10,9 km/h (2 Bft)
09.09.2010 02:00 10,9 C 92 % 1011,0 hPa 0,0 l/m W-SW 0,00 h 0 W/m 11,0 km/h (2 Bft)
09.09.2010 03:00 11,0 C 94 % 1011,3 hPa 0,0 l/m SW 0,00 h 0 W/m 12,4 km/h (3 Bft)
09.09.2010 04:00 11,1 C 93 % 1011,3 hPa 0,0 l/m W-SW 0,00 h 0 W/m 15,0 km/h (3 Bft)
09.09.2010 05:00 11,4 C 91 % 1011,8 hPa 0,0 l/m SW 0,00 h 0 W/m 14,9 km/h (3 Bft)
09.09.2010 06:00 11,1 C 94 % 1012,3 hPa 0,6 l/m SW 0,00 h 0 W/m 10,9 km/h (2 Bft)
09.09.2010 07:00 10,9 C 97 % 1012,6 hPa 0,0 l/m SW 0,00 h 15 W/m 9,4 km/h (2 Bft)
09.09.2010 08:00 11,1 C 96 % 1013,1 hPa 0,2 l/m SW 0,00 h 43 W/m 9,9 km/h (2 Bft)
09.09.2010 09:00 11,7 C 95 % 1013,9 hPa 0,0 l/m SW 0,00 h 111 W/m 10,2 km/h (2 Bft)
09.09.2010 10:00 13,2 C 91 % 1014,5 hPa 0,0 l/m SW 0,25 h 285 W/m 13,3 km/h (3 Bft)
09.09.2010 11:00 15,3 C 82 % 1014,8 hPa 0,0 l/m SW 0,92 h 471 W/m 16,2 km/h (3 Bft)
09.09.2010 12:00 17,1 C 72 % 1014,8 hPa 0,0 l/m SW 1,00 h 774 W/m 19,6 km/h (3 Bft)
09.09.2010 13:00 18,1 C 64 % 1014,9 hPa 0,0 l/m SW 0,92 h 711 W/m 20,4 km/h (4 Bft)
09.09.2010 14:00 18,1 C 61 % 1014,9 hPa 0,0 l/m W-SW 0,42 h 401 W/m 17,2 km/h (3 Bft)
09.09.2010 15:00 16,4 C 70 % 1015,5 hPa 0,0 l/m O 0,33 h 362 W/m 11,0 km/h (2 Bft)
09.09.2010 16:00 15,8 C 72 % 1015,9 hPa 0,0 l/m O-NO 0,08 h 181 W/m 9,9 km/h (2 Bft)
09.09.2010 17:00 13,6 C 88 % 1016,6 hPa 5,0 l/m W-NW 0,00 h 25 W/m 5,6 km/h (1 Bft)
09.09.2010 18:00 12,8 C 95 % 1016,7 hPa 0,2 l/m W-SW 0,00 h 72 W/m 4,4 km/h (1 Bft)
09.09.2010 19:00 12,5 C 95 % 1017,2 hPa 0,0 l/m SW 0,00 h 21 W/m 2,9 km/h (1 Bft)
09.09.2010 20:00 11,1 C 96 % 1017,9 hPa 0,0 l/m NW 0,00 h 0 W/m 2,1 km/h (1 Bft)
09.09.2010 21:00 9,9 C 97 % 1018,9 hPa 0,0 l/m N 0,00 h 0 W/m 0,1 km/h (0 Bft)
09.09.2010 22:00 9,5 C 98 % 1019,4 hPa 0,0 l/m N 0,00 h 0 W/m 0,0 km/h (0 Bft)
09.09.2010 23:00 9,6 C 98 % 1019,6 hPa 0,0 l/m N 0,00 h 0 W/m 0,5 km/h (0 Bft)
10.09.2010 00:00 10,0 C 98 % 1020,0 hPa 0,0 l/m N 0,00 h 0 W/m 0,0 km/h (0 Bft)
10.09.2010 01:00 10,3 C 98 % 1020,0 hPa 0,0 l/m N 0,00 h 0 W/m 0,0 km/h (0 Bft)
10.09.2010 02:00 10,3 C 98 % 1020,3 hPa 0,0 l/m N 0,00 h 0 W/m 0,1 km/h (0 Bft)
10.09.2010 03:00 10,3 C 98 % 1020,5 hPa 0,0 l/m N 0,00 h 0 W/m 0,4 km/h (0 Bft)
10.09.2010 04:00 10,3 C 98 % 1020,8 hPa 0,0 l/m SO 0,00 h 0 W/m 0,9 km/h (0 Bft)
10.09.2010 05:00 9,7 C 98 % 1020,8 hPa 0,0 l/m N 0,00 h 0 W/m 0,0 km/h (0 Bft)
10.09.2010 06:00 9,4 C 98 % 1021,1 hPa 0,2 l/m N 0,00 h 0 W/m 0,0 km/h (0 Bft)
10.09.2010 07:00 10,6 C 99 % 1021,6 hPa 0,0 l/m N 0,00 h 31 W/m 1,3 km/h (1 Bft)
10.09.2010 08:00 11,5 C 99 % 1022,2 hPa 0,0 l/m N 0,00 h 55 W/m 0,9 km/h (0 Bft)
10.09.2010 09:00 12,3 C 99 % 1022,4 hPa 0,0 l/m S-SW 0,08 h 156 W/m 5,0 km/h (1 Bft)
10.09.2010 10:00 14,2 C 94 % 1022,5 hPa 0,0 l/m S 0,75 h 417 W/m 7,2 km/h (2 Bft)
10.09.2010 11:00 16,0 C 86 % 1022,2 hPa 0,0 l/m SW 0,50 h 513 W/m 9,4 km/h (2 Bft)
10.09.2010 12:00 17,9 C 77 % 1021,7 hPa 0,0 l/m SW 1,00 h 841 W/m 12,1 km/h (2 Bft)
10.09.2010 13:00 17,3 C 73 % 1021,4 hPa 0,0 l/m W-SW 0,17 h 267 W/m 11,2 km/h (2 Bft)
10.09.2010 14:00 17,0 C 75 % 1021,6 hPa 0,0 l/m SW 0,00 h 184 W/m 10,5 km/h (2 Bft)
10.09.2010 15:00 16,6 C 77 % 1021,3 hPa 0,0 l/m N-NW 0,00 h 181 W/m 3,9 km/h (1 Bft)
10.09.2010 16:00 17,3 C 73 % 1021,0 hPa 0,0 l/m W-NW 0,25 h 248 W/m 4,8 km/h (1 Bft)
10.09.2010 17:00 17,1 C 75 % 1020,8 hPa 0,0 l/m W-NW 0,00 h 152 W/m 2,1 km/h (1 Bft)
10.09.2010 18:00 16,4 C 84 % 1020,6 hPa 0,0 l/m N 0,00 h 62 W/m 0,5 km/h (0 Bft)
10.09.2010 19:00 15,1 C 90 % 1020,8 hPa 0,0 l/m N 0,08 h 25 W/m 0,4 km/h (0 Bft)
10.09.2010 20:00 13,5 C 93 % 1021,1 hPa 0,0 l/m N 0,00 h 0 W/m 0,3 km/h (0 Bft)
10.09.2010 21:00 12,3 C 96 % 1021,7 hPa 0,0 l/m N 0,00 h 0 W/m 1,1 km/h (0 Bft)
10.09.2010 22:00 11,5 C 96 % 1021,7 hPa 0,0 l/m N 0,00 h 0 W/m 0,9 km/h (0 Bft)
10.09.2010 23:00 10,9 C 97 % 1021,6 hPa 0,0 l/m N 0,00 h 0 W/m 0,5 km/h (0 Bft)
11.09.2010 00:00 10,4 C 97 % 1021,4 hPa 0,0 l/m N 0,00 h 0 W/m 0,0 km/h (0 Bft)
11.09.2010 01:00 9,8 C 97 % 1021,0 hPa 0,0 l/m N 0,00 h 0 W/m 0,4 km/h (0 Bft)
11.09.2010 02:00 9,8 C 97 % 1020,7 hPa 0,0 l/m N 0,00 h 0 W/m 1,7 km/h (1 Bft)
11.09.2010 03:00 9,5 C 97 % 1020,5 hPa 0,0 l/m N 0,00 h 0 W/m 0,0 km/h (0 Bft)
11.09.2010 04:00 8,9 C 97 % 1020,2 hPa 0,0 l/m N 0,00 h 0 W/m 0,0 km/h (0 Bft)
11.09.2010 05:00 8,7 C 98 % 1020,0 hPa 0,0 l/m N 0,00 h 0 W/m 0,0 km/h (0 Bft)
11.09.2010 06:00 8,5 C 98 % 1020,1 hPa 0,0 l/m N 0,00 h 5 W/m 1,3 km/h (1 Bft)
11.09.2010 07:00 8,3 C 98 % 1020,3 hPa 0,0 l/m N 0,08 h 43 W/m 1,1 km/h (0 Bft)
11.09.2010 08:00 9,7 C 99 % 1020,4 hPa 0,0 l/m N 0,83 h 210 W/m 1,5 km/h (1 Bft)
11.09.2010 09:00 12,4 C 93 % 1020,4 hPa 0,0 l/m N 1,00 h 383 W/m 2,7 km/h (1 Bft)
11.09.2010 10:00 15,5 C 81 % 1020,4 hPa 0,0 l/m NO 1,00 h 517 W/m 4,9 km/h (1 Bft)
11.09.2010 11:00 17,3 C 74 % 1020,3 hPa 0,0 l/m O-NO 0,92 h 511 W/m 8,6 km/h (2 Bft)
11.09.2010 12:00 18,7 C 66 % 1019,8 hPa 0,0 l/m O-NO 0,92 h 608 W/m 13,3 km/h (3 Bft)
11.09.2010 13:00 19,7 C 59 % 1019,4 hPa 0,0 l/m O-SO 1,00 h 691 W/m 12,9 km/h (3 Bft)
11.09.2010 14:00 20,1 C 57 % 1019,3 hPa 0,0 l/m O 0,67 h 522 W/m 11,8 km/h (2 Bft)
11.09.2010 15:00 20,6 C 54 % 1018,9 hPa 0,0 l/m O-NO 1,00 h 612 W/m 11,5 km/h (2 Bft)
11.09.2010 16:00 20,4 C 52 % 1018,4 hPa 0,0 l/m O-SO 0,83 h 389 W/m 10,9 km/h (2 Bft)
11.09.2010 17:00 20,2 C 53 % 1018,3 hPa 0,0 l/m O-NO 1,00 h 292 W/m 8,7 km/h (2 Bft)
11.09.2010 18:00 19,5 C 56 % 1018,2 hPa 0,0 l/m O-SO 0,25 h 66 W/m 6,8 km/h (2 Bft)
11.09.2010 19:00 16,3 C 77 % 1018,0 hPa 0,0 l/m N 0,00 h 12 W/m 1,5 km/h (1 Bft)
11.09.2010 20:00 14,0 C 85 % 1018,4 hPa 0,0 l/m N 0,00 h 0 W/m 1,1 km/h (0 Bft)
11.09.2010 21:00 12,8 C 89 % 1018,6 hPa 0,0 l/m N 0,00 h 0 W/m 0,9 km/h (0 Bft)
11.09.2010 22:00 12,3 C 91 % 1018,5 hPa 0,0 l/m N 0,00 h 0 W/m 2,7 km/h (1 Bft)
11.09.2010 23:00 12,1 C 91 % 1018,5 hPa 0,0 l/m NW 0,00 h 0 W/m 2,8 km/h (1 Bft)
12.09.2010 00:00 11,7 C 92 % 1018,4 hPa 0,0 l/m NW 0,00 h 0 W/m 3,7 km/h (1 Bft)
12.09.2010 01:00 11,1 C 93 % 1018,1 hPa 0,0 l/m NW 0,00 h 0 W/m 3,9 km/h (1 Bft)
12.09.2010 02:00 10,7 C 94 % 1017,7 hPa 0,0 l/m N-NW 0,00 h 0 W/m 4,5 km/h (1 Bft)
12.09.2010 03:00 10,2 C 95 % 1017,6 hPa 0,0 l/m N-NW 0,00 h 0 W/m 3,3 km/h (1 Bft)
12.09.2010 04:00 9,7 C 97 % 1017,5 hPa 0,0 l/m N 0,00 h 0 W/m 2,8 km/h (1 Bft)
12.09.2010 05:00 9,5 C 97 % 1017,5 hPa 0,0 l/m N-NW 0,00 h 0 W/m 4,0 km/h (1 Bft)
12.09.2010 06:00 9,1 C 97 % 1017,5 hPa 0,0 l/m N 0,00 h 5 W/m 3,5 km/h (1 Bft)
12.09.2010 07:00 9,2 C 98 % 1017,7 hPa 0,0 l/m N-NW 0,42 h 45 W/m 2,7 km/h (1 Bft)
12.09.2010 08:00 10,7 C 97 % 1017,8 hPa 0,0 l/m N 0,83 h 205 W/m 2,7 km/h (1 Bft)
12.09.2010 09:00 13,0 C 89 % 1018,0 hPa 0,0 l/m N-NO 1,00 h 360 W/m 4,1 km/h (1 Bft)
12.09.2010 10:00 14,9 C 83 % 1018,0 hPa 0,0 l/m O-SO 1,00 h 438 W/m 3,9 km/h (1 Bft)
12.09.2010 11:00 16,3 C 81 % 1017,9 hPa 0,0 l/m S-SW 0,92 h 440 W/m 4,4 km/h (1 Bft)
12.09.2010 12:00 17,8 C 74 % 1017,6 hPa 0,0 l/m O-SO 1,00 h 552 W/m 4,7 km/h (1 Bft)
12.09.2010 13:00 19,2 C 68 % 1017,2 hPa 0,0 l/m S-SW 1,00 h 577 W/m 6,4 km/h (2 Bft)
12.09.2010 14:00 20,0 C 67 % 1016,8 hPa 0,0 l/m S-SO 1,00 h 532 W/m 6,3 km/h (2 Bft)
12.09.2010 15:00 20,5 C 67 % 1016,5 hPa 0,0 l/m W 0,58 h 386 W/m 6,1 km/h (2 Bft)
12.09.2010 16:00 21,1 C 64 % 1016,4 hPa 0,0 l/m W-SW 0,67 h 336 W/m 6,1 km/h (2 Bft)
12.09.2010 17:00 21,0 C 66 % 1016,2 hPa 0,0 l/m S 0,75 h 267 W/m 6,8 km/h (2 Bft)
12.09.2010 18:00 20,5 C 68 % 1016,1 hPa 0,0 l/m SW 0,33 h 105 W/m 8,0 km/h (2 Bft)
12.09.2010 19:00 17,8 C 80 % 1015,9 hPa 0,0 l/m N 0,00 h 15 W/m 1,5 km/h (1 Bft)
12.09.2010 20:00 15,1 C 91 % 1016,0 hPa 0,0 l/m N 0,00 h 0 W/m 0,0 km/h (0 Bft)
12.09.2010 21:00 14,2 C 93 % 1016,1 hPa 0,0 l/m N 0,00 h 0 W/m 0,1 km/h (0 Bft)
12.09.2010 22:00 15,1 C 95 % 1016,4 hPa 7,6 l/m W-SW 0,00 h 0 W/m 5,6 km/h (1 Bft)
12.09.2010 23:00 14,5 C 94 % 1017,7 hPa 25,6 l/m W-NW 0,00 h 0 W/m 20,5 km/h (4 Bft)
Min-Datum _ 06.09.10 06.09.10 08.09.10 - - - - 06.09.10
_ Min-Zeit 06:35 15:00 06:55 - - - - 00:20
Minimum _ 7,1 C 41 % 1001,0 hPa - - - - 0,0 km/h (0 Bft)
Max-Datum _ 12.09.10 08.09.10 10.09.10 12.09.10 - 06.09.10 10.09.10 12.09.10
_ Max-Zeit 16:10 22:20 10:00 23:25 - 07:25 12:40 23:35
Maximum _ 21,6 C 100 % 1022,6 hPa 25,6 l/m - 0,08 h 940 W/m 32,2 km/h
SW (5 Bft)
Durchschnitt _ 13,4 C 86 % 1014,0 hPa #48,8 l/m SW #36:05 h 259 W/m 7,0 km/h (2 Bft)